Regional Weather Roundup
Issued by NWS

Home | Current Version | Previous Version | Text Only | Print | Product List | Glossary Off
Versions: 1 2 3 4 5 6 7 8 9 10 11 12 13 14 15 16 17 18 19 20 21 22 23 24 25 26 27 28 29 30 31 32 33 34 35 36 37 38 39 40 41 42 43 44 45 46 47 48 49 50

000
ASUS45 KBOI 232210
RWRID

IDAHO REGIONAL WEATHER ROUNDUP
NATIONAL WEATHER SERVICE BOISE ID
300 PM MST THU FEB 23 2017

NOTE: "FAIR" INDICATES FEW OR NO CLOUDS BELOW 12000 FEET
WITH NO SIGNIFICANT WEATHER AND/OR OBSTRUCTIONS TO VISIBILITY

IDZ012-014-232300-
SOUTHWEST IDAHO


CITY           SKY/WX    TMP DP  RH WIND       PRES   REMARKS
BOISE          CLOUDY    33  25  72 NW25G31   29.90S WCI  20
CALDWELL       CLOUDY    37  21  52 W26       29.95S WCI  25
MOUNTAIN HOME  FLURRIES  34  25  69 NW33G40   29.89R WCI  19
$$

IDZ016-017-232300-
SOUTHCENTRAL IDAHO


CITY           SKY/WX    TMP DP  RH WIND       PRES   REMARKS
BURLEY         SNOW      28  22  78 W24G35    29.81R VSB 1/2 WCI  14
JEROME           N/A    N/A N/A N/A MISG      29.82S
TWIN FALLS     LGT SNOW  26  22  84 W24G32    29.85R FOG     WCI  11
$$

IDZ019>023-232300-
SOUTHEAST IDAHO


CITY           SKY/WX    TMP DP  RH WIND       PRES   REMARKS
IDAHO FALLS    LGT SNOW  26  25  96 S17       29.74R FOG     WCI  13
POCATELLO      LGT SNOW  26  23  88 SW25      29.77R FOG     WCI  11
REXBURG        FLURRIES  27  25  92 SW14      29.72S WCI  16
$$

IDZ006-010-011-018-031-032-232300-
CENTRAL IDAHO MOUNTAINS


CITY           SKY/WX    TMP DP  RH WIND       PRES   REMARKS
MCCALL         CLOUDY    27  11  51 N13G22    29.81F WCI  16
HAILEY         LGT SNOW  28  25  86 SE7       29.73R WCI  21
STANLEY          N/A     25  17  72 NW6       29.69S WCI  18
SALMON         CLOUDY    34  18  51 N9        29.79S WCI  26
CHALLIS        LGT SNOW  27  25  92 N7        29.75S FOG     WCI  19
$$

IDZ002-004-006-007-026-232300-
NORTHERN IDAHO


CITY           SKY/WX    TMP DP  RH WIND       PRES   REMARKS
LEWISTON       MOSUNNY   41  24  51 W18       30.08S
LOWELL           N/A     35  31  85 CALM      30.06S
COEUR D`ALENE  SUNNY     35  28  75 W7        30.04F WCI  29
MULLAN PASS    PTSUNNY   23  20  88 VRB3      29.85S
$$



USA.gov is the U.S. government's official web portal to all federal, state and local government web resources and services.